Year,Month,Day,Hour,Minute,Value (Times are PST for temperature in C)
2018,08,23,13,30,15.30
2018,08,23,13,31,15.30
2018,08,23,13,32,15.30
2018,08,23,13,33,15.30
2018,08,23,13,34,15.30
2018,08,23,13,35,15.40
2018,08,23,13,36,15.40
2018,08,23,13,37,15.40
2018,08,23,13,38,15.40
2018,08,23,13,39,15.50
2018,08,23,13,40,15.50
2018,08,23,13,41,15.40
2018,08,23,13,42,15.40
2018,08,23,13,43,15.40
2018,08,23,13,44,15.30
2018,08,23,13,45,15.30
2018,08,23,13,46,15.30
2018,08,23,13,47,15.30
2018,08,23,13,48,15.30
2018,08,23,13,49,15.30
2018,08,23,13,50,15.30
2018,08,23,13,51,15.30
2018,08,23,13,52,15.30
2018,08,23,13,53,15.30
2018,08,23,13,54,15.30
2018,08,23,13,55,15.40
2018,08,23,13,56,15.40
2018,08,23,13,57,15.40
2018,08,23,13,58,15.40
2018,08,23,13,59,15.50
2018,08,23,14,00,15.50
2018,08,23,14,01,15.50
2018,08,23,14,02,15.50
2018,08,23,14,03,15.50
2018,08,23,14,04,15.40
2018,08,23,14,05,15.40
2018,08,23,14,06,15.30
2018,08,23,14,07,15.30
2018,08,23,14,08,15.30
2018,08,23,14,09,15.30
2018,08,23,14,10,15.20
2018,08,23,14,11,15.20
2018,08,23,14,12,15.10
2018,08,23,14,13,15.10
2018,08,23,14,14,15.00
2018,08,23,14,15,15.00
2018,08,23,14,16,14.90
2018,08,23,14,17,14.90
2018,08,23,14,18,14.90
2018,08,23,14,19,14.90
2018,08,23,14,20,14.90
2018,08,23,14,21,14.90
2018,08,23,14,22,14.90
2018,08,23,14,23,14.80
2018,08,23,14,24,14.80
2018,08,23,14,25,14.70
2018,08,23,14,26,14.70
2018,08,23,14,27,14.70
2018,08,23,14,28,14.70
2018,08,23,14,29,14.70
2018,08,23,14,30,14.70
2018,08,23,14,31,14.70
2018,08,23,14,32,14.70
2018,08,23,14,33,14.70
2018,08,23,14,34,14.80
2018,08,23,14,35,14.80
2018,08,23,14,36,14.70
2018,08,23,14,37,14.60
2018,08,23,14,38,14.60
2018,08,23,14,39,14.50
2018,08,23,14,40,14.40
2018,08,23,14,41,14.40
2018,08,23,14,42,14.30
2018,08,23,14,43,14.30
2018,08,23,14,44,14.30
2018,08,23,14,45,14.30
2018,08,23,14,46,14.30
2018,08,23,14,47,14.30
2018,08,23,14,48,14.30
2018,08,23,14,49,14.20
2018,08,23,14,50,14.20
2018,08,23,14,51,14.20
2018,08,23,14,52,14.20
2018,08,23,14,53,14.10
2018,08,23,14,54,14.10
2018,08,23,14,55,14.00
2018,08,23,14,56,14.00
2018,08,23,14,57,13.90
2018,08,23,14,58,13.90
2018,08,23,14,59,13.90
2018,08,23,15,00,13.90
2018,08,23,15,01,13.90
2018,08,23,15,02,13.80
2018,08,23,15,03,13.80
2018,08,23,15,04,13.80
2018,08,23,15,05,13.80
2018,08,23,15,06,13.80
2018,08,23,15,07,13.80
2018,08,23,15,08,13.80
2018,08,23,15,09,13.80
2018,08,23,15,10,13.80
2018,08,23,15,11,13.80
2018,08,23,15,12,13.80
2018,08,23,15,13,13.80
2018,08,23,15,14,13.70
2018,08,23,15,15,13.70
2018,08,23,15,16,13.70
2018,08,23,15,17,13.70
2018,08,23,15,18,13.70
2018,08,23,15,19,13.70
2018,08,23,15,20,13.70
2018,08,23,15,21,13.70
2018,08,23,15,22,13.70
2018,08,23,15,23,13.70
2018,08,23,15,24,13.70
2018,08,23,15,25,13.70
2018,08,23,15,26,13.70
2018,08,23,15,27,13.70
2018,08,23,15,28,13.70
2018,08,23,15,29,13.70
2018,08,23,15,30,13.70
2018,08,23,15,31,13.70
2018,08,23,15,32,13.80
2018,08,23,15,33,13.80
2018,08,23,15,34,13.80
2018,08,23,15,35,13.80
2018,08,23,15,36,13.80
2018,08,23,15,37,13.90
2018,08,23,15,38,13.90
2018,08,23,15,39,13.90
2018,08,23,15,40,13.90
2018,08,23,15,41,13.90
2018,08,23,15,42,13.90
2018,08,23,15,43,13.90
2018,08,23,15,44,13.90
2018,08,23,15,45,13.90
2018,08,23,15,46,13.90
2018,08,23,15,47,13.90
2018,08,23,15,48,13.90
2018,08,23,15,49,14.00
2018,08,23,15,50,14.00
2018,08,23,15,51,14.10
2018,08,23,15,52,14.10
2018,08,23,15,53,14.20
2018,08,23,15,54,14.20
2018,08,23,15,55,14.20
2018,08,23,15,56,14.20
2018,08,23,15,57,14.30
2018,08,23,15,58,14.30
2018,08,23,15,59,14.30
2018,08,23,16,00,14.40
2018,08,23,16,01,14.40
2018,08,23,16,02,14.50
2018,08,23,16,03,14.50
2018,08,23,16,04,14.60
2018,08,23,16,05,14.60
2018,08,23,16,06,14.60
2018,08,23,16,07,14.50
2018,08,23,16,08,14.50
2018,08,23,16,09,14.50
2018,08,23,16,10,14.40
2018,08,23,16,11,14.40
2018,08,23,16,12,14.40
2018,08,23,16,13,14.50
2018,08,23,16,14,14.50
2018,08,23,16,15,14.50
2018,08,23,16,16,14.60
2018,08,23,16,17,14.60
2018,08,23,16,18,14.60
2018,08,23,16,19,14.60
2018,08,23,16,20,14.70
2018,08,23,16,21,14.70
2018,08,23,16,22,14.70
2018,08,23,16,23,14.70
2018,08,23,16,24,14.60
2018,08,23,16,25,14.70
2018,08,23,16,26,14.70
2018,08,23,16,27,14.60
2018,08,23,16,28,14.60
2018,08,23,16,29,14.60
2018,08,23,16,30,14.60
2018,08,23,16,31,14.50
2018,08,23,16,32,14.50
2018,08,23,16,33,14.50
2018,08,23,16,34,14.40
2018,08,23,16,35,14.40
2018,08,23,16,36,14.40
2018,08,23,16,37,14.40
2018,08,23,16,38,14.40
2018,08,23,16,39,14.30
2018,08,23,16,40,14.30
2018,08,23,16,41,14.30
2018,08,23,16,42,14.30
2018,08,23,16,43,14.30
2018,08,23,16,44,14.30
2018,08,23,16,45,14.20
2018,08,23,16,46,14.20
2018,08,23,16,47,14.20
2018,08,23,16,48,14.10
2018,08,23,16,49,14.10
2018,08,23,16,50,14.10
2018,08,23,16,51,14.10
2018,08,23,16,52,14.00
2018,08,23,16,53,14.00
2018,08,23,16,54,13.90
2018,08,23,16,55,13.90
2018,08,23,16,56,13.90
2018,08,23,16,57,13.90
2018,08,23,16,58,13.80
2018,08,23,16,59,13.80
2018,08,23,17,00,13.80
2018,08,23,17,01,13.80
2018,08,23,17,02,13.80
2018,08,23,17,03,13.80
2018,08,23,17,04,13.80
2018,08,23,17,05,13.80
2018,08,23,17,06,13.80
2018,08,23,17,07,13.80
2018,08,23,17,08,13.90
2018,08,23,17,09,13.90
2018,08,23,17,10,14.00
2018,08,23,17,11,14.00
2018,08,23,17,12,14.10
2018,08,23,17,13,14.10
2018,08,23,17,14,14.10
2018,08,23,17,15,14.10
2018,08,23,17,16,14.10
2018,08,23,17,17,14.10
2018,08,23,17,18,14.10
2018,08,23,17,19,14.10
2018,08,23,17,20,14.10
2018,08,23,17,21,14.20
2018,08,23,17,22,14.20
2018,08,23,17,23,14.20
2018,08,23,17,24,14.20
2018,08,23,17,25,14.20
2018,08,23,17,26,14.20
2018,08,23,17,27,14.20
2018,08,23,17,28,14.20
2018,08,23,17,29,14.10
2018,08,23,17,30,14.10
2018,08,23,17,31,14.10
2018,08,23,17,32,14.10
2018,08,23,17,33,14.10
2018,08,23,17,34,14.10
2018,08,23,17,35,14.10
2018,08,23,17,36,14.10
2018,08,23,17,37,14.10
2018,08,23,17,38,14.10
2018,08,23,17,39,14.10
2018,08,23,17,40,14.10
2018,08,23,17,41,14.10
2018,08,23,17,42,14.20
2018,08,23,17,43,14.20
2018,08,23,17,44,14.20
2018,08,23,17,45,14.20
2018,08,23,17,46,14.20
2018,08,23,17,47,14.20
2018,08,23,17,48,14.20
2018,08,23,17,49,14.20
2018,08,23,17,50,14.20
2018,08,23,17,51,14.20
2018,08,23,17,52,14.20
2018,08,23,17,53,14.20
2018,08,23,17,54,14.20
2018,08,23,17,55,14.20
2018,08,23,17,56,14.20
2018,08,23,17,57,14.30
2018,08,23,17,58,14.30
2018,08,23,17,59,14.30
2018,08,23,18,00,14.30
2018,08,23,18,01,14.30
2018,08,23,18,02,14.30
2018,08,23,18,03,14.30
2018,08,23,18,04,14.30
2018,08,23,18,05,14.30
2018,08,23,18,06,14.30
2018,08,23,18,07,14.30
2018,08,23,18,08,14.30
2018,08,23,18,09,14.30
2018,08,23,18,10,14.30
2018,08,23,18,11,14.40
2018,08,23,18,12,14.40
2018,08,23,18,13,14.40
2018,08,23,18,14,14.40
2018,08,23,18,15,14.40
2018,08,23,18,16,14.40
2018,08,23,18,17,14.40
2018,08,23,18,18,14.40
2018,08,23,18,19,14.50
2018,08,23,18,20,14.50
2018,08,23,18,21,14.50
2018,08,23,18,22,14.50
2018,08,23,18,23,14.50
2018,08,23,18,24,14.50
2018,08,23,18,25,14.50
2018,08,23,18,26,14.50
2018,08,23,18,27,14.50
2018,08,23,18,28,14.50
2018,08,23,18,29,14.50
2018,08,23,18,30,14.50
2018,08,23,18,31,14.50
2018,08,23,18,32,14.60
2018,08,23,18,33,14.60
2018,08,23,18,34,14.60
2018,08,23,18,35,14.60
2018,08,23,18,36,14.60
2018,08,23,18,37,14.60
2018,08,23,18,38,14.60
2018,08,23,18,39,14.60
2018,08,23,18,40,14.60
2018,08,23,18,41,14.60
2018,08,23,18,42,14.60
2018,08,23,18,43,14.60
2018,08,23,18,44,14.70
2018,08,23,18,45,14.70
2018,08,23,18,46,14.70
2018,08,23,18,47,14.70
2018,08,23,18,48,14.70
2018,08,23,18,49,14.70
2018,08,23,18,50,14.70
2018,08,23,18,51,14.70
2018,08,23,18,52,14.70
2018,08,23,18,53,14.70
2018,08,23,18,54,14.70
2018,08,23,18,55,14.70
2018,08,23,18,56,14.70
2018,08,23,18,57,14.60
2018,08,23,18,58,14.60
2018,08,23,18,59,14.60
2018,08,23,19,00,14.60
2018,08,23,19,01,14.50
2018,08,23,19,02,14.50
2018,08,23,19,03,14.50
2018,08,23,19,04,14.50
2018,08,23,19,05,14.50
2018,08,23,19,06,14.50
2018,08,23,19,07,14.40
2018,08,23,19,08,14.40
2018,08,23,19,09,14.40
2018,08,23,19,10,14.40
2018,08,23,19,11,14.40
2018,08,23,19,12,14.40
2018,08,23,19,13,14.40
2018,08,23,19,14,14.40
2018,08,23,19,15,14.40
2018,08,23,19,16,14.40
2018,08,23,19,17,14.40
2018,08,23,19,18,14.40
2018,08,23,19,19,14.40
2018,08,23,19,20,14.40
2018,08,23,19,21,14.40
2018,08,23,19,22,14.40
2018,08,23,19,23,14.40
2018,08,23,19,24,14.40
2018,08,23,19,25,14.40
2018,08,23,19,26,14.40
2018,08,23,19,27,14.40
2018,08,23,19,28,14.40
2018,08,23,19,29,14.40
2018,08,23,19,30,14.30
2018,08,23,19,31,14.30
2018,08,23,19,32,14.30
2018,08,23,19,33,14.30
2018,08,23,19,34,14.30
2018,08,23,19,35,14.30
2018,08,23,19,36,14.30
2018,08,23,19,37,14.30
2018,08,23,19,38,14.30
2018,08,23,19,39,14.30
2018,08,23,19,40,14.30
2018,08,23,19,41,14.30
2018,08,23,19,42,14.30
2018,08,23,19,43,14.30
2018,08,23,19,44,14.30
2018,08,23,19,45,14.30
2018,08,23,19,46,14.30
